Dewpoint
40 41 41 42 42 42 40 39 39 39 39 40 40 40 41 41 41 38 35 36 33 24 25 27 28 25 26 27 22 24 27 31 30 25 23 21 22 19 16 17 21 20 20 19 21 19 12 21 22 17 20 24 28 28
41 42 41 42 42 41 41 40 39 39 39 40 40 40 41 41 41 38 32 36 38 33 30 34 33 32 30 29 30 30 29 30 32 27 27 26 23 20 17 12 17 18 20 19 19 18 22 25 21 25 29 28 29 31
42 42 42 42 42 42 40 39 39 39 39 39 39 39 40 41 41 40 36 39 37 32 32 32 29 30 33 34 35 30 33 35 33 34 30 28 23 23 18 16 18 17 20 20 20 19 21 24 24 21 19 22 29 32
42 42 42 42 42 41 40 39 40 39 39 39 38 38 38 39 41 41 37 38 35 32 27 23 29 30 31 32 33 35 34 34 35 34 30 27 24 27 24 23 20 20 22 19 19 19 19 19 19 17 22 29 27 29
42 42 42 42 42 41 40 40 41 40 39 38 38 38 38 39 41 41 40 38 39 34 25 23 29 27 28 28 29 34 34 31 30 26 26 25 27 26 25 24 21 21 22 20 17 19 18 14 16 22 22 21 24 28
42 42 42 41 41 41 41 41 40 40 39 39 38 38 39 40 37 30 20 28 37 34 22 19 24 27 27 27 28 26 28 27 26 26 24 26 28 24 19 18 21 21 23 23 19 21 20 21 24 24 25 26 26 26
42 42 42 41 41 40 40 41 41 40 39 38 37 37 37 40 32 23 19 29 39 35 21 20 17 23 27 28 28 27 27 27 26 24 23 23 24 25 17 16 15 20 23 24 25 24 23 24 23 25 26 26 29 33
42 42 42 42 41 40 41 41 40 39 38 38 37 38 38 38 36 32 32 38 36 32 29 21 18 18 26 21 20 28 22 25 24 23 23 22 23 23 19 18 18 18 19 21 22 23 23 24 25 24 25 26 28 31
42 42 42 42 41 41 41 41 39 39 38 39 39 37 34 32 30 30 36 37 34 27 17 24 18 11 26 27 28 26 25 21 25 21 22 25 21 19 20 20 20 21 19 19 20 22 23 23 22 22 23 27 30 30
42 42 42 42 41 41 41 41 39 39 39 38 35 26 23 30 36 37 35 31 31 31 29 24 24 20 26 26 21 25 26 25 19 23 26 22 21 22 22 24 30 34 30 31 20 21 22 23 23 24 28 31 32 32
41 42 42 41 41 41 41 40 39 39 37 34 31 30 33 37 36 32 24 23 24 23 26 25 24 21 26 22 23 26 22 24 20 22 23 22 21 26 34 34 32 31 30 29 23 22 22 26 28 29 31 33 33 31
40 41 41 41 41 40 40 40 39 35 33 33 34 37 37 33 29 24 21 24 23 19 24 22 25 25 25 27 21 24 23 25 18 27 23 20 25 31 32 31 28 29 30 30 31 32 32 31 29 30 31 31 32 29
41 41 40 40 40 39 39 39 40 39 38 36 32 30 30 28 21 21 14 20 21 26 26 26 22 25 27 29 24 24 21 17 27 17 17 22 28 32 30 29 28 28 29 30 31 32 32 32 32 30 29 29 28 26
40 40 39 39 40 40 40 40 39 39 35 30 27 19 22 17 23 23 23 22 26 27 28 28 26 25 27 26 25 23 23 24 17 19 19 24 29 28 28 27 27 26 29 29 31 32 32 31 30 29 29 30 28 25
38 38 38 38 39 39 41 41 42 39 33 28 30 17 22 24 25 28 29 30 31 32 31 30 29 28 27 26 26 23 20 17 19 16 23 27 28 26 25 25 24 25 27 28 30 30 30 31 30 28 28 31 29 27
37 38 39 40 41 41 41 41 41 37 33 31 30 26 25 28 24 28 31 31 34 32 33 32 28 24 22 25 23 20 18 12 16 23 26 28 26 26 25 22 26 27 28 28 30 29 28 28 27 27 28 28 28 26
38 39 40 41 41 40 41 39 35 32 31 30 27 30 27 23 23 27 30 31 34 32 28 29 24 21 23 22 22 24 18 19 25 28 27 28 27 25 23 24 26 28 28 26 28 26 25 26 27 26 24 23 24 24
39 38 40 40 39 39 38 37 33 32 29 29 27 25 29 30 28 30 30 31 31 31 32 29 26 23 16 19 16 20 23 21 25 25 25 25 23 20 23 25 26 27 26 19 23 23 25 25 25 23 21 19 18 17
39 38 39 40 39 37 32 34 35 29 28 27 25 27 30 29 31 30 31 32 32 33 31 30 27 24 21 22 19 20 21 22 23 25 24 21 23 20 22 22 21 21 17 17 21 21 21 22 22 21 20 21 17 17
41 41 41 41 40 35 32 32 37 32 28 27 27 28 28 28 29 30 31 32 32 31 29 26 21 18 17 17 20 21 25 26 22 21 21 18 26 26 23 20 18 19 21 22 21 20 20 21 22 22 22 20 18 14
35 35 38 38 36 36 32 30 30 30 30 29 29 30 27 29 28 29 29 31 29 27 24 21 17 24 26 20 22 25 26 25 22 25 25 25 24 21 19 22 24 23 20 19 19 19 21 21 22 22 21 19 19 18
33 36 32 34 32 33 31 33 30 31 30 28 30 30 26 25 25 27 28 28 24 24 24 22 26 27 25 23 22 28 27 27 27 25 25 24 22 23 23 25 24 22 22 20 23 21 22 24 24 23 21 18 19 18
35 33 34 33 29 28 25 30 29 28 24 22 28 25 25 23 25 28 24 25 24 23 22 23 25 25 22 25 27 28 28 27 26 26 23 26 26 26 27 26 26 26 25 25 25 25 23 22 21 21 19 18 15 11
34 31 27 25 28 21 26 23 28 28 27 25 24 19 20 22 25 23 20 21 22 23 25 26 25 26 26 26 25 26 27 28 27 25 26 27 26 26 27 26 27 27 27 27 26 25 24 23 23 23 22 20 19 17
26 24 23 16 22 24 21 18 17 24 16 16 20 15 15 23 17 16 18 18 23 24 24 27 27 26 25 24 23 25 26 27 26 25 26 27 25 25 24 24 25 25 24 21 24 25 24 25 25 24 24 23 22 21
21 14 17 13 14 19 18 14 15 19 18 14 14 17 17 16 15 11 16 11 17 23 25 26 27 25 24 23 21 23 24 25 27 25 25 26 25 23 24 23 23 22 23 22 25 24 24 23 23 22 22 23 23 22
14 6 21 25 23 24 15 14 20 17 14 10 12 13 17 16 6 10 14 13 13 16 21 23 25 27 25 23 24 25 24 25 25 25 25 25 25 25 23 18 19 21 22 22 24 24 23 23 22 13 12 11 13 14
16 21 6 9 12 18 13 8 9 10 10 20 19 11 12 9 8 8 10 12 13 17 20 22 23 23 23 23 23 23 22 23 24 23 23 22 23 24 25 25 24 25 24 24 24 24 23 22 19 12 11 12 12 10
13 16 14 8 12 6 8 8 7 11 13 15 11 9 12 13 7 6 7 7 10 12 13 14 17 19 19 19 18 18 19 20 21 16 14 12 10 13 16 18 22 21 21 20 24 24 24 23 22 19 16 15 10 8
4 12 4 5 4 9 5 5 12 15 15 16 16 13 8 2 -2 -4 1 4 5 6 6 10 14 14 13 14 13 14 16 16 16 18 14 10 14 11 20 21 21 15 14 18 17 17 17 17 22 21 19 12 10 19
9 6 5 6 8 3 5 3 -2 -1 -2 -0 -5 5 5 -1 -2 -1 1 0 0 -1 5 10 12 13 14 12 10 12 12 14 14 15 16 16 17 17 16 18 17 12 9 10 13 16 11 9 4 15 17 16 13 10
-4 -2 1 -0 1 1 -2 2 -3 -2 2 9 9 2 -0 -6 -4 -1 4 2 0 5 7 10 14 15 14 16 13 12 12 11 10 10 12 13 12 11 11 8 6 7 8 9 7 8 7 10 8 7 8 4 4 4
-9 -14 -13 -8 -6 -3 -1 -3 -0 -1 -3 -2 3 -8 -9 -1 3 2 5 3 2 3 7 12 14 14 17 17 14 12 10 10 10 12 10 10 9 11 9 8 7 6 5 4 3 3 4 3 2 1 1 -0 0 0
Lifted_Index
3 3 3 3 3 3 4 4 4 4 3 3 2 2 2 2 2 3 3 3 3 3 3 3 3 3 3 3 3 3 2 1 1 1 1 1 1 1 1 1 1 1 1 1 1 1 1 1 1 1 1 1 1 1
3 3 3 3 3 3 4 4 4 3 3 3 2 2 2 2 2 2 3 3 3 3 3 3 3 3 3 3 3 2 2 1 1 1 1 1 1 1 1 1 1 1 1 1 1 1 1 1 1 1 2 2 1 1
3 3 3 3 3 3 3 3 3 3 3 3 2 2 2 1 1 2 2 2 2 2 2 2 2 2 2 2 2 2 1 1 1 1 1 1 1 1 1 1 2 2 2 2 1 1 1 1 1 2 3 3 2 1
2 3 3 3 3 3 3 3 3 3 3 3 2 2 2 1 1 1 1 1 1 1 1 1 2 2 2 2 2 2 1 1 1 1 1 1 1 1 2 2 2 2 2 2 2 2 1 1 2 2 3 3 3 2
2 2 3 3 3 3 3 3 3 2 2 2 2 2 1 1 0 1 1 1 1 1 1 1 2 2 2 2 2 2 2 2 2 2 2 2 1 1 2 2 2 2 2 2 2 2 2 2 2 3 3 3 3 3
2 2 2 2 2 2 2 2 2 2 2 2 2 2 1 1 1 1 1 1 1 1 2 2 2 2 2 2 2 2 2 2 2 2 2 2 2 2 2 2 2 3 3 3 2 2 2 3 3 3 3 3 3 3
2 2 2 2 2 2 2 2 2 2 2 2 2 2 2 1 2 2 2 2 1 1 2 2 2 2 2 2 1 2 2 2 2 2 2 2 2 2 3 3 3 3 4 4 3 3 3 3 3 3 3 3 2 2
2 2 2 2 2 2 2 3 3 3 3 3 3 3 3 3 3 3 3 2 2 2 3 3 3 2 2 1 1 1 2 2 2 2 2 2 2 2 3 3 3 4 4 4 4 4 4 4 3 3 2 2 2 2
2 2 2 2 2 2 3 3 3 3 3 3 4 4 4 4 4 4 4 3 3 4 4 3 3 3 2 1 1 1 2 2 2 2 1 1 1 2 2 2 2 2 2 3 3 3 3 3 3 3 2 2 2 2
2 2 2 2 2 3 3 3 3 3 4 4 4 4 4 4 4 4 4 4 4 4 4 3 3 2 2 2 2 2 2 2 2 1 1 1 1 1 2 1 1 1 1 2 2 2 3 3 3 3 2 2 1 1
1 2 2 2 3 3 3 3 3 4 4 5 5 4 4 4 4 3 3 3 3 3 3 2 2 2 2 2 2 2 2 2 1 1 1 1 1 1 1 1 1 1 2 2 2 2 2 3 3 3 2 2 2 2
2 2 2 3 3 3 3 3 4 4 5 5 5 4 4 4 3 3 2 2 2 2 2 2 2 2 2 2 2 2 2 2 1 1 1 1 1 1 1 1 1 2 2 2 3 3 2 2 3 3 3 3 3 3
2 3 3 3 3 3 3 3 4 4 5 5 4 4 3 3 3 2 2 2 2 2 2 2 2 2 2 2 2 2 2 1 1 1 1 1 1 1 1 1 1 2 2 2 2 2 2 2 3 3 3 4 4 4
3 3 4 4 4 4 4 4 4 4 4 4 4 3 3 2 2 2 2 2 2 2 2 2 2 2 2 2 2 2 2 1 1 1 1 1 1 1 1 1 2 2 3 3 3 2 2 2 2 2 2 3 3 4
4 4 4 4 4 4 4 3 3 3 4 4 3 3 2 2 2 2 2 2 1 1 1 2 2 2 2 2 2 2 1 1 1 1 1 1 1 1 2 2 2 3 4 4 3 3 2 1 1 1 1 2 3 3
5 4 4 4 4 4 3 3 3 3 3 3 3 2 2 1 1 1 1 1 1 1 1 1 1 2 2 2 2 1 1 1 1 1 1 1 1 2 3 3 4 4 5 4 4 3 3 2 2 2 2 2 3 3
4 4 4 4 4 4 3 3 3 2 2 3 3 2 2 2 1 1 1 1 1 1 1 1 1 1 1 2 1 1 1 1 1 1 1 1 2 3 4 4 5 5 5 5 5 4 4 3 3 3 3 3 3 4
4 4 4 4 4 4 3 3 2 2 2 2 2 2 2 2 2 2 2 2 2 2 2 1 1 1 1 1 1 1 1 1 1 1 2 2 3 4 5 5 5 6 6 6 6 5 5 5 4 4 4 4 4 5
4 4 4 4 4 3 3 3 2 2 2 2 2 2 2 2 2 2 2 2 3 3 2 2 1 1 1 1 1 1 1 1 2 2 3 4 4 5 5 5 6 6 6 6 6 6 5 5 5 5 5 5 5 6
4 4 4 4 4 4 3 3 2 2 2 2 2 2 2 2 2 2 2 3 3 3 3 3 2 2 2 1 1 1 2 2 2 2 3 4 5 5 5 5 6 6 6 6 6 6 6 6 6 6 6 6 6 6
4 4 4 4 4 4 4 3 3 3 2 2 2 2 2 2 2 3 3 3 3 3 3 3 3 3 3 2 2 2 3 3 3 3 4 4 5 5 5 5 5 5 5 6 6 6 6 6 7 7 6 6 6 7
4 4 4 4 4 4 4 4 3 3 3 3 3 3 3 3 3 3 3 3 3 3 3 3 3 4 3 3 3 3 4 4 4 4 5 5 5 5 5 5 5 5 5 5 6 6 6 6 7 6 6 6 6 6
4 4 3 4 4 4 4 4 3 3 3 3 3 3 3 3 3 3 3 3 3 3 4 4 4 4 4 4 4 4 5 5 5 5 5 5 5 5 5 5 5 5 5 5 6 6 6 6 6 6 6 6 6 6
3 3 3 3 3 3 3 3 3 3 3 3 3 3 3 3 3 3 3 3 3 4 4 4 4 4 4 4 5 5 6 6 5 5 5 5 5 5 5 5 5 6 6 6 6 6 6 6 6 6 6 6 6 6
3 3 3 3 3 2 2 2 2 2 3 3 3 3 3 3 3 3 3 3 4 4 5 5 5 4 4 5 5 6 6 6 6 5 6 6 5 5 5 5 5 6 7 6 6 6 6 6 6 6 6 6 6 6
4 4 3 3 2 2 2 2 2 2 3 3 3 3 3 3 3 3 3 4 4 5 5 5 6 5 5 6 6 6 7 7 7 6 6 6 6 5 5 5 5 6 7 7 7 6 6 6 6 6 6 6 6 6
4 4 3 3 3 3 3 3 3 3 3 3 3 3 3 3 3 3 4 4 5 6 6 6 7 7 7 7 7 7 7 8 7 7 8 8 8 7 7 6 6 7 8 8 8 7 7 7 7 7 7 7 7 7
4 4 4 3 3 3 4 4 4 4 3 3 3 3 3 3 3 4 5 5 6 6 6 7 7 7 7 7 7 8 8 8 8 8 8 8 8 8 8 8 8 8 8 8 8 8 8 8 8 8 8 8 8 9
4 4 4 4 4 4 4 5 5 4 4 4 4 4 4 4 4 5 6 6 7 6 6 6 7 7 7 8 8 8 8 7 7 7 6 6 7 8 9 9 9 9 9 9 9 9 9 9 9 9 9 9 9 9
6 6 5 5 6 6 6 6 6 6 6 6 6 6 5 5 6 6 7 7 7 6 6 6 7 7 8 8 8 8 8 8 7 7 7 7 7 8 9 9 9 9 10 10 9 9 10 9 9 9 9 9 9 9
7 7 6 6 7 7 8 8 8 8 8 8 8 7 7 7 7 8 8 8 7 7 6 7 7 8 8 8 9 9 9 9 9 9 8 8 9 9 10 10 10 10 10 10 10 10 10 10 9 9 9 9 9 9
8 7 7 7 7 8 9 9 9 9 8 8 8 8 8 8 8 9 9 9 8 7 7 8 8 9 10 10 10 10 10 10 10 10 10 10 10 10 10 11 11 11 11 10 10 10 10 10 10 10 10 10 10 10
8 8 8 7 8 9 10 10 9 8 8 8 8 8 9 8 9 9 10 10 9 9 9 9 10 10 10 10 10 11 11 11 11 11 11 11 11 11 11 11 11 11 11 11 10 10 10 10 10 10 10 10 10 10